Regional Weather Roundup
Issued by NWS Jackson, KY

Home | Current Version | Previous Version | Text Only | Print | Product List | Glossary Off
Versions: 1 2 3 4 5 6 7 8 9 10 11 12 13 14 15 16 17 18 19 20 21 22 23 24 25 26 27 28 29 30 31 32 33 34 35 36 37 38 39 40 41 42 43 44 45 46 47 48 49 50

000
ASUS43 KJKL 041610
RWRJKL

EAST KENTUCKY HOURLY WEATHER ROUNDUP
NATIONAL WEATHER SERVICE JACKSON KY
1200 PM EDT TUE AUG 04 2015

NOTE: "FAIR" INDICATES FEW OR NO CLOUDS BELOW 12,000 FEET WITH
NO SIGNIFICANT WEATHER AND/OR OBSTRUCTIONS TO VISIBILITY.

* THESE REPORTS ARE NOT UNDER NWS QUALITY CONTROL AND MAY NOT
  REPORT WEATHER SUCH AS PRECIPITATION AND FOG.

KYZ079-080-083-085-087-088-110-112-115-119-120-041700
...EASTERN KENTUCKY...

CITY           SKY/WX    TMP DP  RH WIND       PRES   REMARKS
JACKSON        MOSUNNY   81  72  74 VRB3      30.05R
LONDON         MOSUNNY   85  68  56 SW7       30.05S
SOMERSET*      CLOUDY    82  70  65 W8        30.05S
MONTICELLO*    MOSUNNY   87  75  67 W3        30.07S HX  96
WILLIAMSBURG*  MOSUNNY   84  73  70 CALM      30.05  HX  91
MIDDLESBORO*   SUNNY     85  71  63 CALM      30.06S HX  90
HAZARD APT*    SUNNY     84  70  61 SW6       30.05R
BLACK MTN*       N/A     75  64  69 VRB2        N/A
PIKEVILLE APT* PTSUNNY   82  70  65 CALM      30.05R
BIG SANDY*     PTSUNNY   80  72  75 W3        30.04R
MOREHEAD APT*  SUNNY     79  72  78 S3        30.03S
$$

KYZ035-036-041-042-044-050-067-078-099-041700
...CENTRAL KENTUCKY...

CITY           SKY/WX    TMP DP  RH WIND       PRES   REMARKS
MT STERLING*   PTSUNNY   82  70  65 W8        30.03F
FLEMING/MASON* SUNNY     79  70  73 W7        30.02S
DANVILLE*      PTSUNNY   84  70  61 W6        30.04S
RICHMOND*      PTSUNNY   82  70  65 W7        30.03R
LEXINGTON      PTSUNNY   80  70  71 SW7       30.02S
FRANKFORT      CLOUDY    81  68  64 SW8       30.00S
$$

KYZ091>093-OHZ055-061-077-WVZ005-015-034-035-042-041700
...SOUTHERN OHIO/WEST VIRGINIA...

CITY           SKY/WX    TMP DP  RH WIND       PRES   REMARKS
COVINGTON      PTSUNNY   80  64  58 W10       30.00S
COLUMBUS       MOSUNNY   78  53  41 SW3       29.99S
DAYTON         MOSUNNY   78  55  44 W6        30.01S
WILMINGTON     SUNNY     78  59  51 S5        30.00S
HUNTINGTON     SUNNY     79  68  69 VRB3      30.00S
CHARLESTON     MOSUNNY   79  65  62 VRB5      30.01S
PINEVILLE*     CLOUDY    79  71  75 MISG      30.12R
BECKLEY        PTSUNNY   77  66  68 W12       30.10R
BLUEFIELD      PTSUNNY   81  65  58 W9        30.13S
$$

VAZ002-007-008-TNZ017-027-036-066-071-041700
...SOUTHWEST VIRGINIA/EAST TENNESSEE...

CITY           SKY/WX    TMP DP  RH WIND       PRES   REMARKS
WISE*          MOSUNNY   84  57  39 W7        30.14R
ABINGDON*      SUNNY     83  65  53 W8        30.11R
BRISTOL        PTSUNNY   84  65  52 VRB5      30.08S
KNOXVILLE      PTSUNNY   87  67  51 VRB6      30.04S HX  90
OAK RIDGE      MOSUNNY   87  69  54 VRB5      30.06R HX  91
CROSSVILLE     MOSUNNY   85  65  51 NW7       30.11R
NASHVILLE      MOSUNNY   92  67  43 W3        30.03S HX  95
$$

...KEY TO REMARKS...
VSB - VISIBILITY IN MILES
WCI - WIND CHILL INDEX
HX  - HEAT INDEX

$$



USA.gov is the U.S. government's official web portal to all federal, state and local government web resources and services.